Boom en verlichtingspaal belanden op auto door storm

StormCell - Onweer anders bekeken

Welkom op Stormcell.be, dé website waar onweer al sinds 2011 anders wordt bekeken.

Op onze site vindt de bezoeker duidelijke weermodellen, data van het StormCell weerstation in regio Ninove (België) én kan men het onweer live volgen via lightningmaps.org.

We beschikken over een Facebook pagina waar weer gerelateerde berichten worden gedeeld en waar we zelf ook waarschuwingen voor onweer of noodweer uitsturen indien nodig.

U leest het goed: indien nodig, dus geen onheilspellende berichten als de storm of het onweer slechts in een glas water zal woeden. We zijn niet uit op sensatie of het zaaien van angst. We bekijken het onweer met klare kijk op de feiten. 

[Source: ADDS]
METAR
EBBR 191450Z 31010KT 280V340 7000 FEW015CB 17/13 Q1006 TEMPO 4000 TSRA =
EBBR 191107Z 1912/2018 34007KT 7000 FEW030TCU SCT045 TEMPO 1913/1921 4000 SHRA PROB40 TEMPO 1915/1919 VRB15G25KT 2000 TSRAGS BKN006 BKN025CB BECMG 1920/1922 3000 BR BKN005 PROB40 2000/2008 0600 FG BKN001 BECMG 2010/2012 6000 NSW BKN008
TAF
EBBR 191107Z 1912/2018 34007KT 7000 FEW030TCU SCT045 TEMPO 1913/1921 4000 SHRA PROB40 TEMPO 1915/1919 VRB15G25KT 2000 TSRAGS BKN006 BKN025CB BECMG 1920/1922 3000 BR BKN005 PROB40 2000/2008 0600 FG BKN001 BECMG 2010/2012 6000 NSW BKN008 =

Visweer Vlissingen

StormCell is een non profit organisatie zonder oogmerk tot sensatie